| time (UTC) | temp F | wind direction | speed knots | gust knots | rain 1hr in | rain 24hr in | rain mn in | humidity % | barometer mb |
| 20260503053010 | 78 | 115 | 0.0 | 0.0 | 0.00 | 0.00 | 0.00 | 89 | 1016.7 |
| 20260503051509 | 78 | 115 | 0.9 | 2.6 | 0.00 | 0.00 | 0.00 | 90 | 1016.7 |
| 20260503050008 | 77 | 106 | 0.0 | 0.0 | 0.00 | 0.00 | 0.00 | 90 | 1016.6 |
| 20260503044507 | 77 | 106 | 0.0 | 0.0 | 0.00 | 0.00 | 0.00 | 90 | 1016.8 |
| 20260503043006 | 77 | 106 | 0.0 | 0.9 | 0.00 | 0.00 | 0.00 | 90 | 1016.8 |
| 20260503041506 | 77 | 106 | 0.0 | 1.7 | 0.00 | 0.00 | 0.00 | 90 | 1016.9 |
| 20260503040011 | 77 | 106 | 0.0 | 0.0 | 0.00 | 0.00 | 0.00 | 90 | 1016.7 |
| 20260503034503 | 77 | 106 | 0.0 | 0.0 | 0.00 | 0.00 | 0.00 | 90 | 1016.6 |
| 20260503033003 | 77 | 106 | 0.0 | 0.0 | 0.00 | 0.00 | 0.00 | 90 | 1016.7 |
| 20260503031502 | 77 | 106 | 0.0 | 0.0 | 0.00 | 0.00 | 0.00 | 89 | 1016.7 |
| 20260503030001 | 77 | 84 | 0.0 | 0.0 | 0.00 | 0.00 | 0.00 | 89 | 1016.5 |
| 20260503024603 | 78 | 37 | 0.0 | 0.0 | 0.00 | 0.00 | 0.00 | 89 | 1016.5 |
| 20260503023101 | 78 | 86 | 0.0 | 0.0 | 0.00 | 0.00 | 0.00 | 89 | 1016.7 |
| 20260503021558 | 78 | 55 | 0.0 | 0.0 | 0.00 | 0.00 | 0.00 | 88 | 1016.5 |
| 20260503020113 | 78 | 50 | 0.0 | 0.0 | 0.00 | 0.00 | 0.00 | 88 | 1016.3 |
| 20260503014610 | 78 | 96 | 0.0 | 0.0 | 0.00 | 0.00 | 0.00 | 88 | 1016.1 |
| 20260503013115 | 78 | 60 | 0.0 | 0.0 | 0.00 | 0.00 | 0.00 | 88 | 1015.8 |
| 20260503011556 | 78 | 82 | 0.0 | 0.0 | 0.00 | 0.00 | 0.00 | 88 | 1015.7 |
| 20260503010055 | 78 | 107 | 0.0 | 0.0 | 0.00 | 0.00 | 0.00 | 88 | 1015.5 |
| 20260503004603 | 78 | 100 | 0.0 | 0.0 | 0.00 | 0.00 | 0.00 | 88 | 1015.1 |
| 20260503003054 | 79 | 110 | 0.0 | 0.0 | 0.00 | 0.00 | 0.00 | 88 | 1014.8 |
| 20260503001556 | 79 | 91 | 0.0 | 4.3 | 0.00 | 0.00 | 0.00 | 88 | 1014.6 |
| 20260502234603 | 79 | 139 | 0.9 | 7.0 | 0.00 | 0.00 | 0.00 | 88 | 1014.2 |
| 20260502233052 | 79 | 84 | 0.9 | 7.0 | 0.00 | 0.00 | 0.00 | 87 | 1014.1 |
| 20260502231552 | 80 | 153 | 2.6 | 7.0 | 0.00 | 0.00 | 0.00 | 87 | 1014.0 |
| 20260502230052 | 80 | 55 | 0.9 | 8.7 | 0.00 | 0.00 | 0.00 | 86 | 1013.6 |
| 20260502224550 | 81 | 98 | 3.5 | 9.6 | 0.00 | 0.00 | 0.00 | 86 | 1013.5 |
| 20260502223100 | 81 | 168 | 3.5 | 8.7 | 0.00 | 0.00 | 0.00 | 86 | 1013.6 |
| 20260502221549 | 81 | 65 | 2.6 | 10.4 | 0.00 | 0.00 | 0.00 | 85 | 1013.3 |
| 20260502220056 | 83 | 91 | 3.5 | 9.6 | 0.00 | 0.00 | 0.00 | 82 | 1013.3 |
| 20260502214609 | 84 | 117 | 3.5 | 10.4 | 0.00 | 0.00 | 0.00 | 81 | 1013.1 |
| 20260502213105 | 84 | 130 | 5.2 | 13.9 | 0.00 | 0.00 | 0.00 | 78 | 1012.9 |
| 20260502211552 | 84 | 133 | 5.2 | 10.4 | 0.00 | 0.00 | 0.00 | 79 | 1013.0 |
| 20260502210048 | 84 | 102 | 2.6 | 10.4 | 0.00 | 0.00 | 0.00 | 80 | 1012.9 |
| 20260502204545 | 85 | 77 | 5.2 | 11.3 | 0.00 | 0.00 | 0.00 | 80 | 1012.9 |
| 20260502203106 | 84 | 136 | 7.8 | 13.9 | 0.00 | 0.00 | 0.00 | 78 | 1012.9 |
| 20260502201543 | 84 | 138 | 8.7 | 13.9 | 0.00 | 0.00 | 0.00 | 79 | 1013.1 |
| 20260502200045 | 84 | 139 | 7.8 | 10.4 | 0.00 | 0.00 | 0.00 | 80 | 1013.0 |
| 20260502194537 | 83 | 86 | 0.0 | 7.8 | 0.00 | 0.00 | 0.00 | 84 | 1013.1 |
| 20260502193035 | 83 | 56 | 4.3 | 9.6 | 0.00 | 0.00 | 0.00 | 83 | 1013.3 |
| 20260502191541 | 83 | 75 | 6.1 | 10.4 | 0.00 | 0.00 | 0.00 | 83 | 1013.5 |
| 20260502190034 | 82 | 79 | 3.5 | 13.0 | 0.00 | 0.00 | 0.00 | 84 | 1013.8 |
| 20260502184532 | 83 | 80 | 4.3 | 11.3 | 0.00 | 0.00 | 0.00 | 84 | 1014.0 |
| 20260502183032 | 83 | 75 | 2.6 | 8.7 | 0.00 | 0.00 | 0.00 | 84 | 1013.9 |
| 20260502181532 | 83 | 52 | 4.3 | 12.2 | 0.00 | 0.00 | 0.00 | 84 | 1014.1 |
| 20260502163039 | 83 | 69 | 1.7 | 13.0 | 0.00 | 0.00 | 0.00 | 84 | 1015.1 |
| 20260502161535 | 83 | 84 | 7.0 | 13.9 | 0.00 | 0.00 | 0.00 | 82 | 1015.3 |
| 20260502151518 | 83 | 56 | 3.5 | 11.3 | 0.00 | 0.00 | 0.00 | 83 | 1015.4 |
| 20260502123117 | 80 | 121 | 2.6 | 8.7 | 0.00 | 0.00 | 0.00 | 86 | 1015.9 |
| 20260502121559 | 79 | 51 | 0.9 | 8.7 | 0.00 | 0.00 | 0.00 | 87 | 1015.6 |
| 20260502120111 | 79 | 61 | 1.7 | 6.1 | 0.00 | 0.00 | 0.00 | 88 | 1015.6 |
| 20260502114554 | 78 | 63 | 2.6 | 8.7 | 0.00 | 0.00 | 0.00 | 87 | 1015.5 |
| 20260502113053 | 78 | 41 | 0.9 | 6.1 | 0.00 | 0.00 | 0.00 | 88 | 1015.4 |
| 20260502111548 | 78 | 90 | 0.0 | 4.3 | 0.00 | 0.00 | 0.00 | 88 | 1015.1 |
| 20260502110047 | 76 | 71 | 0.0 | 2.6 | 0.00 | 0.00 | 0.00 | 89 | 1015.0 |
| 20260502104545 | 75 | 120 | 0.0 | 2.6 | 0.00 | 0.00 | 0.00 | 90 | 1014.9 |
| 20260502103044 | 75 | 120 | 0.0 | 0.0 | 0.00 | 0.00 | 0.00 | 90 | 1014.9 |
| 20260502101543 | 75 | 121 | 0.0 | 0.0 | 0.00 | 0.00 | 0.00 | 90 | 1014.8 |
| 20260502071532 | 75 | 121 | 0.0 | 0.0 | 0.00 | 0.00 | 0.00 | 88 | 1013.6 |
| 20260502070033 | 76 | 86 | 0.0 | 0.0 | 0.00 | 0.00 | 0.00 | 88 | 1013.8 |
| 20260502064530 | 76 | 87 | 0.0 | 0.0 | 0.00 | 0.00 | 0.00 | 88 | 1013.6 |
| 20260502063030 | 76 | 129 | 0.0 | 1.7 | 0.00 | 0.00 | 0.00 | 88 | 1013.7 |
| 20260502061528 | 76 | 128 | 0.0 | 0.0 | 0.00 | 0.00 | 0.00 | 88 | 1013.7 |
| 20260502060030 | 76 | 92 | 0.0 | 0.0 | 0.00 | 0.00 | 0.00 | 88 | 1014.0 |
| 20260502054533 | 76 | 37 | 0.0 | 0.0 | 0.00 | 0.00 | 0.00 | 88 | 1014.0 |